Location: Unspecified
(53.0138°N, 0.0000°E)
Time: 04:49:52
(UTC+00:00)

Transit 2A Rocket - Visible Passes

Search period start: 04 April 2026 00:00
Search period end: 14 April 2026 00:00
Orbit: 584 x 899 km, 66.7° (Epoch: 28 March)

Date Brightness Start Highest point End Pass type
(mag) Time Alt. Az. Time Alt. Az. Time Alt. Az.
4 Apr 8.0 03:24:58 10° ESE 03:26:33 11° ESE 03:28:06 10° E visible
5 Apr 6.8 04:17:07 10° S 04:22:21 34° ESE 04:27:22 10° NE visible
6 Apr 7.4 03:32:38 10° SSE 03:36:58 22° ESE 03:41:09 10° ENE visible
7 Apr 7.7 02:49:09 10° SE 02:51:41 13° ESE 02:54:11 10° ENE visible
7 Apr 5.8 04:27:20 10° SSW 04:33:08 59° ESE 04:38:36 10° NE visible
8 Apr 6.4 03:42:11 10° S 03:47:35 38° ESE 03:52:43 10° NE visible
9 Apr 7.0 02:57:31 10° SSE 03:02:08 24° ESE 03:06:35 10° ENE visible
10 Apr 7.5 02:13:38 10° SE 02:16:49 15° ESE 02:19:56 10° ENE visible
10 Apr 5.5 03:52:32 10° SSW 03:58:22 67° SE 04:03:52 10° NE visible
11 Apr 6.1 03:08:20 15° S 03:12:47 43° ESE 03:18:01 10° NE visible
12 Apr 6.7 02:24:04 17° SSE 02:27:19 28° ESE 02:31:58 10° ENE visible
12 Apr 5.2 04:03:46 11° SW 04:09:21 75° NW 04:14:50 10° NE visible
13 Apr 7.2 01:39:45 14° SE 01:41:58 17° ESE 01:45:31 10° ENE visible
13 Apr 5.3 03:19:26 20° SSW 03:23:38 75° SE 03:29:06 10° NE visible
